Location: Zagreb
(45.8000°N, 16.0000°E)
Time: 00:04:36
(UTC+02:00)

Envisat - Pass Details

Date: 30 April 2024
Orbit: 762 x 764 km, 98.3° (Epoch: 27 May)

Event Time Altitude Azimuth Distance (km) Brightness Sun altitude
Rises 03:00:48 0° 29° (NNE) 3,237 7.7 -22.8°
Reaches altitude 10° 03:04:00 10° 51° (NE) 2,305 6.5 -22.5°
Maximum altitude 03:07:10 16° 90° (E) 1,888 5.4 -22.2°
Drops below altitude 10° 03:10:19 10° 128° (SE) 2,293 5.4 -21.9°
Enters shadow 03:12:20 - 143° (SE) 2,852 5.8 -21.7°
